Japanese version Home page |
Updated on January 2, 2011 |
Profile
|
Orbital ElementsEpoch 2002 Mar. 27.0 TT = JDT 2452360.5 T 2002 Mar. 25.20326 TT MPC q 2.3054124 (2000.0) P Q n 0.12144316 Peri. 35.42237 +0.90732245 -0.40800327 a 4.0385055 Node 347.38429 +0.18908842 +0.61158867 e 0.4291422 Incl. 27.68784 +0.37551503 +0.67785886 P 8.12
|
Finding Charts
|
Magnitudes Graphm1 = 13.5 + 5 log d + 7.0 log r(t - 150)
|
The orbital elements are printed on CBET 1913.
|